Sturgis, MI

5:31 PM EST on December 07, 2019 (GMT -0500)
Kirsch Municipal

Weather History for KIRS - October, 2019

Change the Weather History Date:

Wednesday, October 30, 2019

  Actual Average (WUND) Record (WUND)
Temperature  
Mean Temperature 40 °F -  
Max Temperature 43 °F - - (-1)
Min Temperature 38 °F - - (-1)
Degree Days  
Heating Degree Days 24    
Moisture  
Dew Point 38 °F    
Average Humidity 88    
Maximum Humidity 90    
Minimum Humidity 82    
Precipitation  
Precipitation 0.38 in - - ()
Sea Level Pressure  
Sea Level Pressure 30.14 in    
Wind  
Wind Speed 6 mph ()    
Max Wind Speed 10 mph    
Max Gust Speed 16 mph    
Visibility 7.0 miles    
Events Rain    
Averages and records for this station are not official NWS values.
T = Trace of Precipitation, MM = Missing Value Source: Averaged Metar Reports

Daily Weather History Graph

Daily Weather History Graph

Search for Another Location

Airport or City:

Astronomy

Oct. 30, 2019 Rise Set
Actual Time 8:11 AM EDT 6:38 PM EDT
Civil Twilight 7:42 AM EDT 7:07 PM EDT
Nautical Twilight 7:09 AM EDT 7:40 PM EDT
Astronomical Twilight 6:37 AM EDT 8:12 PM EDT
Moon 10:55 AM EDT (10/30) 8:44 PM EDT (10/30)
Length of Visible Light 11h 25m
Length of Day
10h 27m
Waxing Crescent, 8% of the Moon is Illuminated
Oct 30
Waxing Crescent
Nov 4
First Quarter
Nov 12
Full
Nov 19
Last Quarter
Nov 26
New

Hourly Weather History & Observations

Time (EDT) Temp. Windchill Dew Point Humidity Pressure Visibility Wind Dir Wind Speed Gust Speed Precip Events Conditions
12:16 AM 41.9 °F 37.5 °F 37.4 °F 84% 30.26 in 10.0 mi North 6.9 mph - N/A   Overcast
12:35 AM 41.9 °F 40.0 °F 37.2 °F 83% 30.26 in 10.0 mi NNE 3.5 mph - N/A   Overcast
12:36 AM 41.9 °F 39.0 °F 37.2 °F 83% 30.26 in 10.0 mi North 4.6 mph - N/A   Overcast
12:55 AM 41.9 °F 39.0 °F 36.7 °F 82% 30.27 in 10.0 mi North 4.6 mph - N/A   Overcast
12:56 AM 41.9 °F 39.0 °F 36.7 °F 82% 30.27 in 10.0 mi North 4.6 mph - N/A   Overcast
1:19 AM 41.9 °F 37.5 °F 36.7 °F 82% 30.26 in 10.0 mi North 6.9 mph - N/A   Overcast
1:37 AM 41.5 °F - 36.5 °F 82% 30.28 in 10.0 mi Calm Calm - N/A   Overcast
1:55 AM 41.5 °F - 36.5 °F 82% 30.28 in 10.0 mi Calm Calm - N/A   Overcast
2:15 AM 41.5 °F 39.6 °F 36.7 °F 83% 30.27 in 10.0 mi NNE 3.5 mph - N/A   Overcast
2:16 AM 41.5 °F 39.6 °F 36.7 °F 83% 30.27 in 10.0 mi NNE 3.5 mph - N/A   Overcast
2:35 AM 41.5 °F 39.6 °F 36.9 °F 83% 30.27 in 10.0 mi NE 3.5 mph - N/A   Overcast
2:40 AM 41.5 °F - 36.9 °F 83% 30.27 in 10.0 mi Calm Calm - N/A   Overcast
2:58 AM 41.5 °F 39.6 °F 36.9 °F 83% 30.29 in 10.0 mi North 3.5 mph - N/A Rain Rain
3:16 AM 40.6 °F 38.6 °F 36.7 °F 86% 30.28 in 4.0 mi NNE 3.5 mph - 0.01 in Rain Light Rain
3:35 AM 40.3 °F 35.5 °F 37.0 °F 88% 30.27 in 4.0 mi NNE 6.9 mph - 0.04 in Rain Rain
3:36 AM 40.3 °F 35.5 °F 37.0 °F 88% 30.27 in 4.0 mi North 6.9 mph - 0.04 in Rain Rain
3:55 AM 39.9 °F 34.5 °F 36.5 °F 88% 30.25 in 7.0 mi NNE 8.1 mph - 0.05 in Rain Light Rain
3:56 AM 39.9 °F 33.9 °F 36.5 °F 88% 30.25 in 7.0 mi NNE 9.2 mph - 0.05 in Rain Light Rain
4:19 AM 39.6 °F 37.4 °F 36.0 °F 87% 30.28 in 7.0 mi NE 3.5 mph - 0.01 in Rain Light Rain
4:37 AM 39.6 °F - 36.3 °F 88% 30.28 in 5.0 mi Calm Calm - 0.02 in Rain Light Rain
4:55 AM 39.7 °F 37.6 °F 36.7 °F 89% 30.28 in 4.0 mi NNE 3.5 mph - 0.03 in Rain Rain
5:15 AM 39.6 °F 35.4 °F 36.5 °F 89% 30.26 in 5.0 mi NNE 5.8 mph - 0.01 in Rain Rain
5:35 AM 39.6 °F 34.0 °F 36.5 °F 89% 30.26 in 5.0 mi North 8.1 mph - 0.04 in Rain Light Rain
5:40 AM 39.4 °F 33.2 °F 36.5 °F 89% 30.26 in 5.0 mi NNE 9.2 mph - 0.04 in   Overcast
5:58 AM 39.2 °F 33.0 °F 36.1 °F 89% 30.24 in 5.0 mi NNE 9.2 mph - 0.06 in Rain Rain
6:16 AM 39.2 °F 34.2 °F 36.1 °F 89% 30.25 in 5.0 mi NNE 6.9 mph - 0.02 in   Unknown
6:35 AM 39.2 °F 33.6 °F 36.3 °F 89% 30.26 in 7.0 mi NE 8.1 mph - 0.02 in Rain Light Rain
6:55 AM 39.2 °F 33.6 °F 35.6 °F 87% 30.26 in 5.0 mi NE 8.1 mph - 0.04 in Rain Light Rain
7:19 AM 38.8 °F 33.8 °F 35.6 °F 88% 30.26 in 7.0 mi NE 6.9 mph - 0.01 in Rain Light Rain
7:36 AM 38.7 °F 32.9 °F 35.6 °F 89% 30.24 in 5.0 mi NE 8.1 mph 16.1 mph 0.02 in   Overcast
7:55 AM 38.5 °F 32.1 °F 35.6 °F 89% 30.25 in 5.0 mi NE 9.2 mph - 0.04 in   Unknown
8:15 AM 38.5 °F 33.4 °F 35.6 °F 89% 30.26 in 7.0 mi NE 6.9 mph - 0.01 in Rain Light Rain
8:16 AM 38.5 °F 33.4 °F 35.6 °F 89% 30.26 in 7.0 mi ENE 6.9 mph - 0.01 in Rain Light Rain
8:35 AM 38.7 °F 32.4 °F 35.6 °F 89% 30.25 in 7.0 mi NE 9.2 mph - 0.03 in Rain Light Rain
8:40 AM 38.7 °F 31.8 °F 35.6 °F 89% 30.25 in 5.0 mi ENE 10.4 mph - 0.03 in Rain Light Rain
8:58 AM 38.8 °F 32.6 °F 35.8 °F 89% 30.24 in 5.0 mi NE 9.2 mph - 0.05 in   Unknown
9:16 AM 39.0 °F 32.8 °F 35.8 °F 88% 30.25 in 5.0 mi NE 9.2 mph - 0.01 in Rain Light Rain
9:35 AM 39.2 °F 33.6 °F 36.0 °F 88% 30.23 in 7.0 mi ENE 8.1 mph - 0.03 in Rain Light Rain
9:36 AM 39.2 °F 33.6 °F 36.0 °F 88% 30.23 in 7.0 mi ENE 8.1 mph - 0.03 in Rain Light Rain
9:55 AM 39.4 °F 33.8 °F 36.5 °F 89% 30.22 in 10.0 mi ENE 8.1 mph - 0.03 in Rain Light Rain
9:56 AM 39.4 °F 33.8 °F 36.5 °F 89% 30.22 in 10.0 mi ENE 8.1 mph - 0.03 in Rain Light Rain
10:19 AM 40.1 °F 34.1 °F 36.7 °F 88% 30.21 in 10.0 mi ENE 9.2 mph - N/A Rain Rain
10:37 AM 40.1 °F 34.7 °F 36.9 °F 88% 30.21 in 10.0 mi East 8.1 mph - N/A Rain Light Rain
10:55 AM 40.3 °F 34.9 °F 37.4 °F 89% 30.20 in 10.0 mi ENE 8.1 mph - 0.01 in Rain Light Rain
11:15 AM 40.6 °F 35.4 °F 37.6 °F 89% 30.19 in 10.0 mi ENE 8.1 mph - N/A Rain Light Rain
11:16 AM 40.6 °F 35.4 °F 37.6 °F 89% 30.19 in 10.0 mi East 8.1 mph - N/A Rain Light Rain
11:35 AM 41.0 °F 36.4 °F 37.8 °F 88% 30.19 in 10.0 mi ENE 6.9 mph - N/A Rain Light Rain
11:40 AM 41.0 °F 37.1 °F 37.8 °F 88% 30.19 in 10.0 mi ENE 5.8 mph - N/A Rain Light Rain
11:58 AM 41.0 °F 35.8 °F 37.9 °F 89% 30.18 in 10.0 mi ENE 8.1 mph - 0.01 in Rain Light Rain
12:16 PM 41.4 °F 37.6 °F 38.3 °F 89% 30.18 in 10.0 mi NE 5.8 mph - N/A   Drizzle
12:35 PM 41.5 °F 37.8 °F 38.3 °F 88% 30.18 in 3.0 mi NNE 5.8 mph - 0.01 in Rain Rain
12:36 PM 41.5 °F 37.1 °F 38.3 °F 88% 30.18 in 3.0 mi NNE 6.9 mph - 0.01 in Rain Rain
12:55 PM 41.5 °F 37.1 °F 38.3 °F 88% 30.17 in 3.0 mi NE 6.9 mph - 0.03 in   Overcast
1:19 PM 41.5 °F 36.4 °F 38.3 °F 88% 30.15 in 5.0 mi NE 8.1 mph - N/A Rain Rain
1:37 PM 41.9 °F 37.5 °F 38.7 °F 88% 30.14 in 5.0 mi NE 6.9 mph - 0.01 in Rain Light Rain
1:55 PM 41.5 °F 36.4 °F 38.5 °F 89% 30.13 in 4.0 mi NE 8.1 mph - 0.01 in Rain Light Rain
1:56 PM 41.5 °F 36.4 °F 38.5 °F 89% 30.13 in 4.0 mi NE 8.1 mph - 0.01 in Rain Light Rain
2:15 PM 41.9 °F 36.9 °F 38.7 °F 88% 30.11 in 4.0 mi NE 8.1 mph - 0.01 in Rain Light Rain
2:35 PM 42.4 °F 37.5 °F 39.2 °F 88% 30.09 in 3.0 mi NE 8.1 mph - 0.01 in   Drizzle
3:35 PM 43.0 °F 37.7 °F 39.7 °F 88% 30.04 in 4.0 mi ENE 9.2 mph 16.1 mph N/A   Drizzle
3:36 PM 43.0 °F 37.7 °F 39.7 °F 88% 30.04 in 5.0 mi ENE 9.2 mph 16.1 mph N/A   Drizzle
3:55 PM 43.0 °F 37.7 °F 39.7 °F 88% 30.04 in 7.0 mi NE 9.2 mph - N/A   Light Drizzle
4:19 PM 43.0 °F 37.7 °F 39.7 °F 88% 30.03 in 10.0 mi ENE 9.2 mph - N/A   Overcast
4:37 PM 43.0 °F 37.2 °F 40.1 °F 90% 30.00 in 4.0 mi NE 10.4 mph - N/A Rain Light Rain
4:55 PM 43.2 °F 37.9 °F 40.1 °F 89% 30.00 in 4.0 mi NE 9.2 mph - N/A   Light Drizzle
5:15 PM 43.3 °F 38.6 °F 40.1 °F 88% 30.00 in 7.0 mi NNE 8.1 mph - N/A Rain Light Rain
5:35 PM 43.3 °F 37.7 °F 40.1 °F 88% 29.98 in 10.0 mi NE 10.4 mph - N/A   Overcast
5:39 PM 43.3 °F 38.6 °F 40.3 °F 89% 29.99 in 10.0 mi NE 8.1 mph - N/A   Overcast
5:57 PM 43.7 °F 38.6 °F 40.3 °F 88% 29.99 in 10.0 mi NE 9.2 mph - N/A   Overcast
6:15 PM 43.7 °F 39.1 °F 40.3 °F 88% 29.99 in 5.0 mi NE 8.1 mph - N/A   Drizzle
6:16 PM 43.7 °F 39.1 °F 40.3 °F 88% 29.99 in 4.0 mi NE 8.1 mph - N/A   Drizzle
6:35 PM 43.7 °F 38.6 °F 40.3 °F 88% 29.98 in 4.0 mi NE 9.2 mph - N/A   Drizzle
6:36 PM 43.7 °F 38.1 °F 40.3 °F 88% 29.98 in 4.0 mi NE 10.4 mph - N/A   Drizzle
6:55 PM 43.7 °F 39.7 °F 40.3 °F 88% 29.98 in 5.0 mi NE 6.9 mph - N/A   Light Drizzle
7:18 PM 43.5 °F 39.4 °F 40.1 °F 88% 29.99 in 7.0 mi NE 6.9 mph - N/A   Drizzle
7:36 PM 43.3 °F 39.9 °F 40.3 °F 89% 29.98 in 7.0 mi NE 5.8 mph - 0.01 in   Drizzle
7:55 PM 43.7 °F 41.1 °F 40.3 °F 88% 29.98 in 7.0 mi NE 4.6 mph - 0.01 in Rain Light Rain
7:56 PM 43.7 °F 40.3 °F 40.3 °F 88% 29.97 in 7.0 mi NE 5.8 mph - 0.01 in Rain Light Rain
8:39 PM 43.2 °F 38.4 °F 40.1 °F 89% 29.95 in 5.0 mi NNE 8.1 mph - N/A   Light Drizzle
8:57 PM 43.0 °F 38.8 °F 39.7 °F 88% 29.95 in 10.0 mi NNE 6.9 mph - N/A   Overcast
9:16 PM 43.0 °F 37.7 °F 39.7 °F 88% 29.94 in 10.0 mi NE 9.2 mph - N/A   Overcast
9:35 PM 43.0 °F 37.7 °F 39.7 °F 88% 29.92 in 10.0 mi NE 9.2 mph - N/A   Overcast
9:55 PM 43.0 °F 38.2 °F 39.7 °F 88% 29.92 in 10.0 mi NE 8.1 mph - N/A   Overcast
10:00 PM 43.0 °F 39.5 °F 39.7 °F 88% 29.92 in 10.0 mi NE 5.8 mph - N/A   Overcast
10:18 PM 43.0 °F 40.3 °F 40.1 °F 90% 29.92 in 10.0 mi NE 4.6 mph - N/A   Overcast
10:36 PM 43.0 °F 39.5 °F 40.1 °F 90% 29.91 in 7.0 mi NNE 5.8 mph - N/A   Overcast
10:55 PM 43.0 °F 38.8 °F 39.9 °F 89% 29.91 in 5.0 mi NNE 6.9 mph - N/A   Overcast
11:15 PM 43.0 °F 40.3 °F 39.9 °F 89% 29.91 in 5.0 mi NNE 4.6 mph - N/A   Overcast
11:16 PM 43.0 °F 40.3 °F 39.9 °F 89% 29.91 in 4.0 mi NNE 4.6 mph - N/A   Overcast
11:39 PM 43.0 °F 39.5 °F 39.7 °F 88% 29.89 in 4.0 mi NNE 5.8 mph - N/A   Overcast
11:57 PM 43.0 °F 40.3 °F 39.7 °F 88% 29.89 in 3.0 mi NNE 4.6 mph - N/A   Overcast